Odiham, United Kingdom

12:06 PM BST on May 29, 2017 (GMT +0100)
Odiham Air Base

Weather History for EGVO - February, 2013

Change the Weather History Date:

Monday, February 25, 2013

  Actual Average Record
Temperature  
Mean Temperature 35 °F -  
Max Temperature 38 °F - - ()
Min Temperature 32 °F - - ()
Degree Days  
Heating Degree Days 30    
Moisture  
Dew Point 34 °F    
Average Humidity 91    
Maximum Humidity 100    
Minimum Humidity 80    
Precipitation  
Precipitation 0.00 in - - ()
Sea Level Pressure  
Sea Level Pressure 30.32 in    
Wind  
Wind Speed 11 mph ()    
Max Wind Speed 20 mph    
Max Gust Speed -    
Visibility 5.0 miles    
Events Rain , Snow    
T = Trace of Precipitation, MM = Missing Value Source: Averaged Metar Reports

Daily Weather History Graph

Daily Weather History Graph

Search for Another Location

Airport or City:

Trip Planner

Search our weather history database for the weather conditions in past years. The results will help you decide how hot, cold, wet, or windy it might be!

Date:

Astronomy

Feb. 25, 2013 Rise Set
Actual Time 6:56 AM GMT 5:37 PM GMT
Civil Twilight 6:23 AM GMT 6:11 PM GMT
Nautical Twilight 5:45 AM GMT 6:49 PM GMT
Astronomical Twilight 5:06 AM GMT 7:28 PM GMT
Moon 5:41 PM GMT (2/25) 6:16 AM GMT (2/25)
Length of Visible Light 11h 47m
Length of Day
10h 40m
Full, 100% of the Moon is Illuminated
Feb 25
Full
Feb 25
Full
Mar 4
Last Quarter
Mar 11
New
Mar 19
First Quarter

Hourly Weather History & Observations

Time (GMT) Temp. Windchill Dew Point Humidity Pressure Visibility Wind Dir Wind Speed Gust Speed Precip Events Conditions
12:50 AM 32.0 °F 23.0 °F 26.6 °F 80% 30.27 in 6.2 mi NNW 11.5 mph - N/A   Mostly Cloudy
1:50 AM 32.0 °F 22.5 °F 28.4 °F 87% 30.27 in 6.2 mi NNW 12.7 mph - N/A   Mostly Cloudy
2:50 AM 33 °F - 33 °F 100% 30.28 in 6 mi NNW 11.5 mph - -   Overcast
2:50 AM 33.8 °F 25.3 °F 33.8 °F 100% 30.24 in 6.2 mi NNW 11.5 mph - N/A   Overcast
3:50 AM 33.8 °F 24.8 °F 33.8 °F 100% 30.24 in 5.6 mi NNW 12.7 mph - N/A   Overcast
4:50 AM 33.8 °F 24.8 °F 33.8 °F 100% 30.24 in 6.2 mi North 12.7 mph - N/A   Overcast
5:50 AM 34 °F - 34 °F 100% 30.30 in 9 mi North 12.7 mph - -   Overcast
5:50 AM 33.8 °F 24.8 °F 33.8 °F 100% 30.27 in 6.2 mi North 12.7 mph - N/A   Overcast
6:50 AM 33.8 °F 24.8 °F 33.8 °F 100% 30.27 in 5.0 mi North 12.7 mph - N/A Snow Light Snow
7:50 AM 33.8 °F 26.4 °F 33.8 °F 100% 30.30 in 4.3 mi North 9.2 mph - N/A Snow Light Snow
8:50 AM 35 °F - 35 °F 99% 30.36 in 4 mi North 10.4 mph - - Snow Light Snow
8:50 AM 35.6 °F 28.0 °F 35.6 °F 100% 30.33 in 4.3 mi North 10.4 mph - N/A Rain , Snow Light Rain
9:50 AM 35.6 °F 28.6 °F 35.6 °F 100% 30.33 in 3.7 mi North 9.2 mph - N/A   Light Drizzle
10:50 AM 35.6 °F 27.5 °F 35.6 °F 100% 30.33 in 5.0 mi North 11.5 mph - N/A   Haze
11:50 AM 37 °F - 33 °F 81% 30.38 in 6 mi North 10.4 mph - -   Haze
11:50 AM 37.4 °F 30.3 °F 33.8 °F 87% 30.33 in 5.6 mi North 10.4 mph - N/A   Haze
12:50 PM 37.4 °F 29.8 °F 32.0 °F 81% 30.33 in 6.2 mi North 11.5 mph - N/A   Overcast
1:50 PM 37.4 °F 29.3 °F 33.8 °F 87% 30.33 in 6.2 mi North 12.7 mph - N/A Rain Light Rain
2:50 PM 37 °F - 34 °F 86% 30.36 in 4 mi North 10.4 mph - - Rain Light Rain
2:50 PM 37.4 °F 30.3 °F 33.8 °F 87% 30.33 in 3.7 mi North 10.4 mph - N/A Rain Light Rain
3:50 PM 37.4 °F 29.8 °F 33.8 °F 87% 30.33 in 3.7 mi North 11.5 mph - N/A   Light Drizzle
4:50 PM 37.4 °F 29.8 °F 33.8 °F 87% 30.33 in 3.7 mi North 11.5 mph - N/A   Light Drizzle
5:50 PM 38 °F - 34 °F 80% 30.38 in 4 mi North 12.7 mph - - Rain Light Drizzle
5:50 PM 37.4 °F 29.3 °F 33.8 °F 87% 30.33 in 4.3 mi North 12.7 mph - N/A   Haze
6:50 PM 37.4 °F 28.9 °F 33.8 °F 87% 30.36 in 4.3 mi North 13.8 mph - N/A   Haze
7:50 PM 37.4 °F 28.9 °F 35.6 °F 93% 30.36 in 4.3 mi North 13.8 mph - N/A   Light Drizzle
8:50 PM 38 °F - 35 °F 82% 30.38 in 4 mi North 15.0 mph - - Rain Light Drizzle
8:50 PM 37.4 °F 28.5 °F 33.8 °F 87% 30.36 in 4.3 mi North 15.0 mph - N/A   Light Drizzle
9:50 PM 37.4 °F 28.2 °F 35.6 °F 93% 30.36 in 4.3 mi NNE 16.1 mph - N/A   Haze
10:50 PM 37.4 °F 27.2 °F 33.8 °F 87% 30.36 in 4.3 mi NNE 19.6 mph - N/A   Haze
11:50 PM 36 °F - 34 °F 90% 30.39 in 4 mi NNE 15.0 mph - -   Haze
11:50 PM 37.4 °F 28.5 °F 33.8 °F 87% 30.36 in 4.3 mi NNE 15.0 mph - N/A   Haze